GSAT-6

Last updated on Sun Jun 21 2026 00:03:06 GMT+0000 (Coordinated Universal Time)

1 40880U 15041A 26171.40831872 -.00000165 00000+0 00000+0 0 9992 2 40880 1.9271 82.5561 0003242 0.5755 55.0247 1.00271648 39635
UTC large
Height (km)
Speed (km/s)
/
Latitude / Longitude
Inclination (degrees)
Orbital Period (minutes)
Azimuth
Elevation
Range (km)
Doppler Factor

Next 0 passes for location: London (51.5072 / 0.1276)

No passes found over London.
GSAT-6